Tracking 19242 objects as of 15-Aug-2018
HD Live streaming from Space Station
objects crossing your sky now

SBS 3

Track SBS 3 now!
SBS 3 is classified as:


NORAD ID: 13651
Int'l Code: 1982-110B
Perigee: 35,862.8 km
Apogee: 35,916.3 km
Inclination: 15.1 °
Period: 1,441.0 minutes
Semi major axis: 42260 km
RCS: 15.8489 m2 (large)
Launch date: November 11, 1982
Source: United States (US)
Launch site: AIR FORCE EASTERN TEST RANGE (AFETR)
aabbcc
Your satellite tracking list
Your tracking list is empty




NASA's NSSDC Master Catalog

Two Line Element Set (TLE):
1 13651U 82110B   18225.74868463 +.00000055 +00000-0 +00000-0 0  9992
2 13651 015.0749 358.3325 0006337 028.7153 229.8408 00.99931057103312
Source of the keplerian elements: AFSPC